[[{"header":{"parameterUnit":"m.s-1","parameterCategory":1,"la1":30.2992,"la2":30.254,"lo1":-89.0895,"lo2":-89.0443,"dy":0.0025,"dx":0.0025,"nx":19,"ny":19,"refTime":"2026-03-10T03:00:00:Z","depth":0,"parameterNumber":2,"parameterNumberName":"U-component_of_WINDS"},"data":[0,0,0,-0.3217,-0.3214,-0.3097,-0.3097,-0.2953,-0.2952,0,0,0,0,0,0,0,0,0,0,0,-0.3258,-0.3257,-0.3217,-0.3214,-0.3097,-0.3097,-0.2953,-0.2952,0,0,0,0,0,0,0,0,0,0,0,-0.3258,-0.3257,-0.3256,-0.3214,-0.3097,-0.3097,-0.2954,-0.3039,0,0,0,0,0,0,0,0,0,0,-0.3151,-0.3197,-0.3258,-0.3256,-0.3213,-0.3097,-0.3096,-0.3043,-0.3034,-0.301,0,-0.2993,0,-0.297,-0.2943,-0.2943,0,0,0,-0.3208,-0.3205,-0.3167,-0.3256,-0.3212,-0.3098,-0.3148,-0.3038,-0.3027,-0.2997,-0.2991,-0.2985,-0.2968,-0.2942,-0.2941,-0.283,-0.2829,0,0,-0.3215,-0.324,-0.3175,-0.3161,-0.3183,-0.3152,-0.3145,-0.3031,-0.3024,-0.299,-0.2982,-0.2966,-0.2941,-0.294,-0.283,-0.283,0,0,0,-0.3237,-0.3244,-0.321,-0.3167,-0.3146,-0.3149,-0.314,-0.3029,-0.3016,-0.298,-0.2964,-0.294,-0.2939,-0.283,-0.283,-0.2842,0,0,0,-0.3241,-0.3258,-0.3213,-0.3227,-0.3148,-0.3087,-0.3141,-0.3024,-0.301,-0.2965,-0.294,-0.2938,-0.283,-0.283,-0.2843,-0.2843,0,0,0,-0.3263,-0.326,-0.3246,-0.3229,-0.318,-0.3088,-0.3068,-0.302,-0.3001,-0.2942,-0.2937,-0.283,-0.283,-0.2843,-0.2844,-0.2821,0,0,0,-0.3293,-0.3258,-0.3246,-0.32,-0.3181,-0.3098,-0.3068,-0.3005,-0.2956,-0.294,-0.283,-0.283,-0.2843,-0.2844,-0.2821,-0.2806,-0.2802,0,0,-0.3262,-0.3255,-0.3225,-0.3212,-0.3138,-0.3114,-0.304,-0.297,-0.294,-0.2867,-0.2864,-0.2842,-0.2844,-0.2821,-0.2775,-0.2772,0,0,0,-0.3224,-0.3203,-0.3178,-0.3134,-0.3082,-0.3036,-0.2976,-0.295,-0.2887,-0.2909,-0.2828,-0.2828,-0.2813,-0.2804,-0.2802,-0.2787,-0.2827,-0.2827,-0.2827,-0.3214,-0.318,-0.3128,-0.308,-0.3038,-0.2977,-0.2938,-0.2892,-0.2869,-0.285,-0.2828,-0.2804,-0.2795,-0.2793,-0.2778,-0.2818,-0.2818,-0.2818,-0.2818,-0.3163,-0.3128,-0.3099,-0.3039,-0.3002,-0.295,-0.2889,-0.2874,-0.2818,-0.2818,-0.2803,-0.2805,-0.2791,-0.2776,-0.2818,-0.2818,-0.2818,-0.2818,-0.2818,-0.3152,-0.3129,-0.31,-0.3034,-0.2986,-0.2937,-0.2886,-0.2853,-0.2822,-0.2808,-0.278,-0.278,-0.2774,-0.2798,-0.2797,-0.2797,-0.2797,-0.2797,-0.2797,-0.3152,-0.3119,-0.3081,-0.3023,-0.2991,-0.2944,-0.2882,-0.2848,-0.2802,-0.2782,-0.2781,-0.2759,-0.2797,-0.2807,-0.2796,-0.2796,-0.2796,-0.2796,-0.2796,-0.3112,-0.3116,-0.3057,-0.3025,-0.2954,-0.2908,-0.2868,-0.2802,-0.2769,-0.2744,-0.2725,-0.2759,-0.2748,-0.275,-0.2758,-0.2734,-0.2734,-0.2734,-0.2734,-0.3101,-0.3094,-0.3027,-0.2977,-0.2925,-0.2883,-0.2815,-0.2766,-0.2715,-0.2692,-0.2691,-0.2699,-0.2702,-0.2689,-0.2692,-0.2698,-0.266,-0.266,-0.266,-0.3074,-0.306,-0.301,-0.2963,-0.2905,-0.2855,-0.279,-0.2731,-0.2675,-0.2656,-0.2673,-0.2676,-0.2688,-0.2695,-0.2676,-0.2681,-0.2692,0,0]},{"header":{"parameterUnit":"m.s-1","parameterCategory":1,"la1":30.2992,"la2":30.254,"lo1":-89.0895,"lo2":-89.0443,"dy":0.0025,"dx":0.0025,"nx":19,"ny":19,"refTime":"2026-03-10T03:00:00:Z","depth":0,"parameterNumber":3,"parameterNumberName":"V-component_of_WINDS"},"data":[0,0,0,2.9235,2.9237,2.9346,2.9346,2.9481,2.9482,0,0,0,0,0,0,0,0,0,0,0,2.92,2.9201,2.9234,2.9237,2.9346,2.9346,2.9481,2.9482,0,0,0,0,0,0,0,0,0,0,0,2.92,2.9201,2.9202,2.9237,2.9346,2.9346,2.948,2.94,0,0,0,0,0,0,0,0,0,0,2.9294,2.9262,2.9201,2.9202,2.9238,2.9346,2.9346,2.9396,2.9405,2.943,0,2.9453,0,2.947,2.9491,2.9491,0,0,0,2.9238,2.9254,2.9285,2.9202,2.9239,2.9345,2.9297,2.9401,2.9411,2.9442,2.9455,2.946,2.9472,2.9492,2.9492,2.964,2.9641,0,0,2.9232,2.9219,2.9278,2.9292,2.9276,2.9293,2.93,2.9407,2.942,2.9456,2.9463,2.9474,2.9493,2.9494,2.9639,2.964,0,0,0,2.9214,2.9214,2.9243,2.9286,2.9306,2.9297,2.9305,2.9415,2.9426,2.9465,2.9476,2.9493,2.9495,2.9639,2.964,2.9661,0,0,0,2.921,2.9204,2.924,2.9233,2.9304,2.9362,2.931,2.9418,2.9431,2.9475,2.9494,2.9496,2.9638,2.9639,2.9659,2.9674,0,0,0,2.9194,2.9202,2.9217,2.9232,2.9279,2.9361,2.9378,2.9421,2.9438,2.9492,2.9497,2.9637,2.9639,2.9657,2.9671,2.9711,0,0,0,2.9172,2.9233,2.9218,2.929,2.9278,2.9373,2.9377,2.9448,2.9497,2.9494,2.9638,2.964,2.9657,2.9669,2.9709,2.9744,2.9757,0,0,2.9241,2.9241,2.9284,2.9274,2.9369,2.9358,2.9456,2.9511,2.9527,2.9601,2.9605,2.966,2.967,2.971,2.983,2.984,0,0,0,2.9302,2.9333,2.9361,2.9408,2.9454,2.9494,2.9536,2.9557,2.9621,2.9563,2.9684,2.9691,2.9715,2.9732,2.9741,2.9763,2.9646,2.9646,2.9646,2.9382,2.9401,2.9475,2.9508,2.9553,2.9597,2.9636,2.9671,2.9675,2.9703,2.9726,2.9796,2.9816,2.9823,2.9846,2.9744,2.9744,2.9744,2.9745,2.9487,2.9535,2.9541,2.9616,2.9635,2.9697,2.9742,2.9743,2.9804,2.978,2.9802,2.9777,2.9834,2.9855,2.9746,2.9746,2.9746,2.9746,2.9745,2.9543,2.957,2.9595,2.9667,2.9719,2.9749,2.9808,2.9823,2.9836,2.9858,2.9885,2.9885,2.9888,2.987,2.987,2.987,2.987,2.987,2.9871,2.9592,2.962,2.9669,2.9724,2.9757,2.9802,2.9848,2.9881,2.9921,2.9926,2.9927,2.9929,2.9835,2.9812,2.9875,2.9874,2.9873,2.9873,2.9873,2.9695,2.9675,2.975,2.9784,2.985,2.9903,2.992,2.9986,3.0015,3.0044,3.0042,2.9969,2.9969,2.9962,2.9944,3.0036,3.0036,3.0036,3.0036,2.9745,2.9746,2.9828,2.9881,2.9934,2.9959,3.0044,3.008,3.0114,3.0133,3.0121,3.0097,3.009,3.0094,3.0085,3.0068,3.019,3.019,3.019,2.981,2.9818,2.9889,2.9923,2.9976,3.0022,3.0103,3.0163,3.0197,3.0197,3.0149,3.0143,3.0104,3.009,3.0091,3.0075,3.0044,0,0]}]]